Location: Pic du Midi - T1M
(42.9366°N, 0.1426°E)
Time: 03:45:12
(UTC+01:00)

Nauka - Pass Details

Date: 28 September 2021
Orbit: 417 x 423 km, 51.6° (Epoch: 19 October)

Event Time Altitude Azimuth Distance (km) Brightness Sun altitude
Rises 21:35:37 0° 304° (NW) 2,359 ? -30.8°
Reaches altitude 10° 21:37:44 10° 308° (NW) 1,494 ? -31.1°
Enters shadow 21:38:03 12° 309° (NW) 1,366 ? -31.2°
